User: anonymous   Login
Location: Unspecified
(0.0000°N, 0.0000°E)
Time: 08:58:02
(UTC+00:00)
Language:

USA 264 DEB - Orbit

View from above orbital plane
View from above orbital plane
View from above satellite
View from above satellite

Ground track
Ground track

The orbit data is extracted from the following two-line orbital elements,

1 40981U 15058R   17193.86680810 0.00000000  00000-0  00000-0 0    02
2 40981  63.4387  95.6495 0073000 175.0064 184.9935 13.40731905    08
Epoch (UTC): 12 July 2017 20:48:12
Eccentricity: 0.0073000
inclination: 63.4387°
perigee height: 1052 km
apogee height: 1161 km
right ascension of ascending node: 95.6495°
argument of perigee: 175.0064°
revolutions per day: 13.40731905
mean anomaly at epoch: 184.9935°
orbit number at epoch: 0

The dashed part of the orbit path shows where the satellite is in the earth's shadow,  

DLR